Regional Weather Roundup
Issued by NWS Memphis, TN

Home | Current Version | Previous Version | Text Only | Print | Product List | Glossary On
Versions: 1 2 3 4 5 6 7 8 9 10 11 12 13 14 15 16 17 18 19 20 21 22 23 24 25 26 27 28 29 30 31 32 33 34 35 36 37 38 39 40 41 42 43 44 45 46 47 48 49 50
000
ASUS44 KMEG 030710
RWRMEG
MEMPHIS CWA HOURLY WEATHER ROUNDUP
NATIONAL WEATHER SERVICE MEMPHIS TN
200 AM CDT TUE MAY 03 2016

...WEST TENNESSEE...

CITY           SKY/WX    TMP DP  RH WIND       PRES   REMARKS
MEMPHIS INTL   CLOUDY    61  53  75 N9        29.98F
NWS MEMPHIS      N/A     59 N/A N/A MISG        N/A
JACKSON        CLOUDY    59  53  80 N9        29.97S
LEXINGTON      PTCLDY    55  54  94 N5        29.94F
DYERSBURG      CLOUDY    55  50  82 N6          N/A
UNION CITY     CLOUDY    55  52  88 N6        29.98F


...EASTERN ARKANSAS...

CITY           SKY/WX    TMP DP  RH WIND       PRES   REMARKS
JONESBORO      CLOUDY    58  48  69 N5        30.01F
WEST MEMPHIS   CLOUDY    59  53  80 N12G17    29.98F
BATESVILLE     CLOUDY    55  46  71 NW5       30.03F
NEWPORT        CLOUDY    58  49  72 N10       30.03F
WALNUT RIDGE   CLOUDY    57  46  67 NW8       30.02S
BLYTHEVILLE    CLOUDY    57  52  83 N9        30.01R
SEARCY         CLOUDY    57  51  80 N6        30.04F
STUTTGART      PTCLDY    55  48  76 N7        30.02F
PINE BLUFF     CLOUDY    59  54  83 N7        30.02F
MONTICELLO     CLOUDY    59  56  89 NW3       30.01F


...NORTH MISSISSIPPI...

CITY           SKY/WX    TMP DP  RH WIND       PRES   REMARKS
TUPELO         CLOUDY    61  57  87 CALM      29.96F
OXFORD         FOG       57  57 100 CALM      29.99F VSB<1/4
BATESVILLE     CLOUDY    59  58  97 CALM      29.98F
OLIVE BRANCH   CLOUDY    57  57 100 NW8       29.98F
TUNICA         MOCLDY    59  54  82 NW7       30.00F
CORINTH        CLOUDY    59  57  94 CALM      29.95S
GREENWOOD      CLOUDY    63  59  87 CALM      29.97F
STARKVILLE     CLOUDY    61  59  94 CALM      29.95F
GOLDEN TRIANGL CLOUDY    63  57  82 NW5       29.95F


...SOUTHEAST MISSOURI...

CITY           SKY/WX    TMP DP  RH WIND       PRES   REMARKS
KENNETT        CLOUDY    57  52  82 N10       29.99F
WEST PLAINS    CLOUDY    51  45  79 CALM      30.04F
POPLAR BLUFF   CLOUDY    56  49  77 N3        30.01F
CAPE GIRARDEAU CLOUDY    54  49  83 NW5       30.00F


...NORTHWEST ALABAMA...

CITY           SKY/WX    TMP DP  RH WIND       PRES   REMARKS
MUSCLE SHOALS  CLOUDY    61  56  83 NW5       29.95F


...MIDDLE TENNESSEE...

CITY           SKY/WX    TMP DP  RH WIND       PRES   REMARKS
NASHVILLE      CLOUDY    58  53  84 NW6       29.95F
CLARKSVILLE    CLOUDY    56  51  84 NW7       29.96F
COLUMBIA       CLOUDY   N/A N/A N/A CALM      29.93F


...WESTERN KENTUCKY...

CITY           SKY/WX    TMP DP  RH WIND       PRES   REMARKS
PADUCAH        CLOUDY    55  49  80 N5        29.98F
FORT CAMPBELL  CLOUDY    56  51  83 NW5       29.96F


...CENTRAL ARKANSAS...

CITY           SKY/WX    TMP DP  RH WIND       PRES   REMARKS
LITTLE ROCK    CLOUDY    59  50  72 N5        30.03F


SKY/WX REPORTED AS FAIR MEANS FEW OR NO CLOUDS BELOW
12 THOUSAND FEET.




USA.gov is the U.S. government's official web portal to all federal, state and local government web resources and services.